Location: *
(50.9167°S, 179.4000°W)
Time: 21:32:02
(UTC+00:00)

IRS-P3 - Pass Details

Date: 03 March 2024
Orbit: 811 x 818 km, 99.0° (Epoch: 16 April)

Event Time Altitude Azimuth Distance (km) Brightness Sun altitude
Rises 16:14:07 0° 7° (N) 3,334 7.1 -12.4°
Reaches altitude 10° 16:16:28 10° 3° (N) 2,411 6.3 -12.1°
Maximum altitude 16:21:45 61° 282° (WNW) 933 4.2 -11.3°
Drops below altitude 10° 16:27:07 10° 201° (SSW) 2,444 6.7 -10.6°
Sets 16:29:31 0° 197° (SSW) 3,384 7.4 -10.2°
